Regional Weather Roundup
Issued by NWS Jackson, KY

Home | Current Version | Previous Version | Graphics & Text | Print | Product List | Glossary On
Versions: 1 2 3 4 5 6 7 8 9 10 11 12 13 14 15 16 17 18 19 20 21 22 23 24 25 26 27 28
000
ASUS43 KJKL 182010
RWRJKL

EAST KENTUCKY HOURLY WEATHER ROUNDUP
NATIONAL WEATHER SERVICE JACKSON KY
300 PM EST THU JAN 18 2018

NOTE: "FAIR" INDICATES FEW OR NO CLOUDS BELOW 12,000 FEET WITH
NO SIGNIFICANT WEATHER AND/OR OBSTRUCTIONS TO VISIBILITY.

* THESE REPORTS ARE NOT UNDER NWS QUALITY CONTROL AND MAY NOT
  REPORT WEATHER SUCH AS PRECIPITATION AND FOG.

KYZ079-080-083-085-087-088-110-112-115-119-120-182100
...EASTERN KENTUCKY...

CITY           SKY/WX    TMP DP  RH WIND       PRES   REMARKS
JACKSON          N/A     30  12  47 CALM      30.30F
LONDON           N/A     27  13  55 VRB7      30.35F WCI  19
SOMERSET*        N/A     28  14  54 W10       30.40F WCI  19
MONTICELLO*      N/A     30  16  56 W15       30.40F WCI  19
WILLIAMSBURG*    N/A     32  10  40 S9        30.36F WCI  24
MIDDLESBORO*     N/A     31  15  52 S5        30.38F WCI  26
HARLAN APT*      N/A     32  10  40 SW5       30.33F WCI  27
PIKE CO APT*     N/A     29  13  50 S6        30.29F WCI  23
BIG SANDY APT*   N/A     30  12  46 W9        30.30F WCI  22
MOREHEAD APT*    N/A     28   9  43 SW20G26   30.31F WCI  15
ASHLAND*         N/A     31  14  49 SW9G17    30.30F WCI  23
$$

KYZ035-036-041-042-044-050-067-078-099-182100
...CENTRAL KENTUCKY...

CITY           SKY/WX    TMP DP  RH WIND       PRES   REMARKS
MT STERLING*     N/A     28  14  54 SW10G16   30.32F WCI  19
FLEMING/MASON*   N/A     26  13  55 SW17      30.29F WCI  14
DANVILLE*        N/A     28  14  54 SW8       30.35F WCI  20
LEXINGTON        N/A     27  12  53 SW15      30.31F WCI  15
FRANKFORT        N/A     28  11  48 SW14      30.30F WCI  17
LOUISVILLE       N/A     32  13  45 SW13      30.32F WCI  22
LEBANON*         N/A     27  12  54 S12       30.35F WCI  16
GLASGOW*         N/A     31  13  46 SW9       30.39F WCI  23
BOWLING GREEN    N/A     27  14  58 SW10      30.42F WCI  17
$$

KYZ091>093-OHZ055-061-077-WVZ005-015-034-035-042-182100
...SOUTHERN OHIO/WEST VIRGINIA...

CITY           SKY/WX    TMP DP  RH WIND       PRES   REMARKS
COVINGTON        N/A     30  15  53 SW12G21   30.23F WCI  20
COLUMBUS         N/A     25  12  58 SW15      30.20F WCI  13
DAYTON           N/A     29  15  56 SW18G26   30.16F WCI  16
WILMINGTON       N/A     26  14  60 SW18      30.18F WCI  13
HUNTINGTON       N/A     29  11  47 S9        30.29F WCI  20
CHARLESTON       N/A     29  11  47 SW10      30.28F WCI  20
BECKLEY          N/A     26   7  44 W10       30.19F WCI  16
BLUEFIELD        N/A     25   5  42 W9G16     30.19F WCI  15
LOGAN CO APT*    N/A     28  10  47 VRB5G12   30.26F WCI  23
$$

VAZ002-007-008-TNZ017-027-036-066-071-182100
...SOUTHWEST VIRGINIA/EAST TENNESSEE...

CITY           SKY/WX    TMP DP  RH WIND       PRES   REMARKS
WISE*            N/A     30  12  47 SW8       30.25F WCI  23
JONESVILLE*      N/A     28  10  47 CALM      30.38F
ABINGDON*        N/A     27  12  53 SW10      30.31F WCI  17
BRISTOL          N/A     26  11  52 S8        30.36F WCI  18
MORRISTOWN*    CLEAR     30   7  37 CALM      30.36F
SEVIERVILLE*   CLEAR     30  10  43 CALM      30.38F
KNOXVILLE        N/A     30  15  53 SW3       30.38F
LAFOLLETTE*    CLEAR     32  12  43 VRB3      30.41F
OAK RIDGE        N/A     32  10  40 W5        30.41F WCI  27
CROSSVILLE       N/A     33   7  33 NW7       30.34F WCI  27
NASHVILLE        N/A     33  14  45 S3        30.43F
$$

...KEY TO REMARKS...
VSB - VISIBILITY IN MILES
WCI - WIND CHILL INDEX
HX  - HEAT INDEX

$$




USA.gov is the U.S. government's official web portal to all federal, state and local government web resources and services.